Location: Gniazdowice
(50.2124°N, 20.2673°E)
Time: 02:05:46
(UTC+00:00)

SL-16 R/B - Pass Details

Date: 23 May 2024
Orbit: 842 x 845 km, 71.0° (Epoch: 18 June)

Event Time Altitude Azimuth Distance (km) Brightness Sun altitude
Rises 01:36:24 0° 322° (NW) 3,416 5.5 -8.7°
Reaches altitude 10° 01:39:18 10° 308° (NW) 2,476 4.6 -8.4°
Maximum altitude 01:43:39 23° 258° (WSW) 1,718 3.4 -7.9°
Drops below altitude 10° 01:47:59 10° 208° (SSW) 2,462 4.0 -7.4°
Enters shadow 01:49:03 - 202° (SSW) 2,788 4.3 -7.3°
